Change the Weather History Date:

Tuesday, February 26, 2013

  Actual Average (PAKU) Record (PAKU)
Temperature  
Mean Temperature -22 °F -  
Max Temperature -18 °F -9 °F 26 °F (2015)
Min Temperature -26 °F -17 °F -51 °F (1986)
Degree Days  
Heating Degree Days 86    
Moisture  
Dew Point -25 °F    
Average Humidity 79    
Maximum Humidity 84    
Minimum Humidity 73    
Precipitation  
Precipitation 0.00 in - - ()
Sea Level Pressure  
Sea Level Pressure 30.09 in    
Wind  
Wind Speed 11 mph (East)    
Max Wind Speed 17 mph    
Max Gust Speed -    
Visibility 7 miles    
Events      
Averages and records for this station are not official NWS values.
T = Trace of Precipitation, MM = Missing Value Source: NWS Daily Summary

Daily Weather History Graph

Daily Weather History Graph

Search for Another Location

Airport or City:

Trip Planner

Search our weather history database for the weather conditions in past years. The results will help you decide how hot, cold, wet, or windy it might be!

Date:

Astronomy

Feb. 26, 2013 Rise Set
Actual Time 8:43 AM AKST 5:51 PM AKST
Civil Twilight 7:40 AM AKST 6:55 PM AKST
Nautical Twilight 6:29 AM AKST 8:06 PM AKST
Astronomical Twilight 5:14 AM AKST 9:21 PM AKST
Moon 8:39 PM AKST (2/26) 7:51 AM AKST (2/26)
Length of Visible Light 11h 15m
Length of Day
9h 08m
Full, 99% of the Moon is Illuminated
Feb 26
Full
Mar 4
Last Quarter
Mar 11
New
Mar 19
First Quarter
Mar 27
Full

Hourly Weather History & Observations

Time (AKST) Temp. Windchill Dew Point Humidity Pressure Visibility Wind Dir Wind Speed Gust Speed Precip Events Conditions
12:53 AM -18.0 °F -43.3 °F -22.0 °F 82% 30.08 in 2.5 mi East 16.1 mph - N/A   Overcast
1:53 AM -18.0 °F -41.6 °F -22.0 °F 82% 30.08 in 2.0 mi ENE 13.8 mph - N/A   Overcast
2:14 AM -18.4 °F -44.5 °F -23.8 °F 76% 30.07 in 3.0 mi East 17.3 mph - N/A   Haze
3:45 AM -18.4 °F - -22.0 °F 84% 30.07 in - North - - N/A   Unknown
3:53 AM -18.0 °F - -22.0 °F 82% 30.09 in 4.0 mi North - - N/A   Mist
4:14 AM -18.4 °F - -22.0 °F 84% 30.07 in 2.0 mi North - - N/A   Overcast
4:53 AM -18.0 °F - -22.0 °F 82% 30.08 in 2.0 mi North - - N/A   Overcast
5:23 AM -18.4 °F - -22.0 °F 84% 30.07 in 1.5 mi North - - N/A   Overcast
5:53 AM -18.0 °F - -22.0 °F 82% 30.07 in 1.5 mi North - - N/A   Overcast
6:48 AM -18.4 °F -44.5 °F -23.8 °F 76% 30.07 in 2.0 mi East 17.3 mph - N/A   Haze
6:53 AM -18.0 °F -43.3 °F -23.1 °F 78% 30.08 in 2.5 mi East 16.1 mph - N/A   Haze
7:11 AM -18.4 °F -43.7 °F -23.8 °F 76% 30.07 in 3.0 mi East 16.1 mph - N/A   Overcast
7:53 AM -18.9 °F -43.6 °F -23.1 °F 81% 30.08 in 6.0 mi East 15.0 mph - N/A   Scattered Clouds
8:53 AM -18.9 °F -40.8 °F -24.0 °F 78% 30.09 in 9.0 mi East 11.5 mph - N/A   Clear
9:53 AM -20.0 °F -38.6 °F -24.0 °F 82% 30.10 in 10.0 mi East 8.1 mph - N/A   Partly Cloudy
10:53 AM -20.0 °F -39.9 °F -24.0 °F 82% 30.11 in 10.0 mi East 9.2 mph - N/A   Clear
11:53 AM -20.0 °F -37.1 °F -24.0 °F 82% 30.12 in 10.0 mi ESE 6.9 mph - N/A   Clear
12:53 PM -20.0 °F -30.7 °F -26.0 °F 74% 30.13 in 10.0 mi ESE 3.5 mph - N/A   Clear
1:53 PM -20.0 °F - -25.1 °F 78% 30.13 in 10.0 mi Calm Calm - N/A   Clear
2:53 PM -18.0 °F -30.9 °F -24.0 °F 74% 30.13 in 10.0 mi East 4.6 mph - N/A   Clear
3:53 PM -20.0 °F -30.7 °F -25.1 °F 78% 30.12 in 10.0 mi SE 3.5 mph - N/A   Clear
4:53 PM -20.0 °F - -26.0 °F 74% 30.12 in 10.0 mi Calm Calm - N/A   Clear
5:53 PM -20.0 °F - -26.0 °F 74% 30.11 in 10.0 mi Calm Calm - N/A   Clear
6:53 PM -20.9 °F -34.3 °F -25.1 °F 81% 30.10 in 10.0 mi NNE 4.6 mph - N/A   Clear
7:53 PM -20.9 °F -31.7 °F -25.1 °F 81% 30.09 in 10.0 mi ENE 3.5 mph - N/A   Clear
8:53 PM -25.1 °F -46.1 °F -29.0 °F 82% 30.08 in 10.0 mi East 9.2 mph - N/A   Clear
9:53 PM -25.1 °F -46.1 °F -29.9 °F 78% 30.08 in 10.0 mi East 9.2 mph - N/A   Clear
10:53 PM -24.0 °F -44.8 °F -29.0 °F 77% 30.08 in 10.0 mi East 9.2 mph - N/A   Clear
11:53 PM -26.0 °F -44.2 °F -32.1 °F 73% 30.07 in 10.0 mi ENE 6.9 mph - N/A   Clear